Regional Weather Roundup
Issued by NWS

Home | Current Version | Previous Version | Text Only | Print | Product List | Glossary On
Versions: 1 2 3 4 5 6 7 8 9 10 11 12 13 14 15 16 17 18 19 20 21 22 23 24 25 26 27 28 29 30 31 32 33 34 35 36 37 38 39 40 41 42 43 44 45 46 47 48 49 50
000
ASHW40 PHFO 060643
RWRHI

WEATHER ROUNDUP FOR HAWAII
NATIONAL WEATHER SERVICE HONOLULU HI
800 PM HST MON DEC 05 2016

THIS IS AN AUTOMATED REPORT THAT HAS NOT BEEN QUALITY CONTROLLED.

NOTE..."FAIR" INDICATES FEW OR NO CLOUDS BELOW 12,000 FEET WITH NO
SIGNIFICANT WEATHER AND/OR OBSTRUCTIONS TO VISIBILITY.

* - THESE SITES REPORT LIMITED FIELDS

HIZ001>004-060700-
KAUAI-NIIHAU-

CITY           SKY/WX    TMP DP  RH WIND       PRES   REMARKS
LIHUE APT      CLOUDY    73  65  75 N8        29.97R
PORT ALLEN*      N/A     72 N/A N/A N7          N/A
POIPU*           N/A     72 N/A N/A NW3         N/A
PRINCEVILLE*     N/A     68 N/A N/A S2          N/A
KOKOLE POINT*  NOT AVBL
MOLOAA DAIRY*    N/A     70  66  88 W3G12       N/A
WAIMEA HTS*      N/A     70  66  88 NE3         N/A
PUU OPAE*      NOT AVBL
PUU LUA*       NOT AVBL
MAKAHA RIDGE*    N/A     66  61  82 SE3         N/A
$$

HIZ005>011-060700-
OAHU-

CITY           SKY/WX    TMP DP  RH WIND       PRES   REMARKS
HONOLULU       MOCLDY    73  67  81 N5        29.95R
KALAELOA       MOCLDY    76  67  73 NE6       29.96R
KANEOHE MCB    NOT AVBL
WHEELER FIELD  PTCLDY    71  69  94 VRB3      29.97
BELLOWS*         N/A    N/A N/A N/A W3          N/A
KAHUKU*          N/A    N/A N/A N/A N1          N/A
WHEELER*         N/A    N/A N/A N/A N3          N/A
WAIANAE HARBOR   N/A    N/A N/A N/A NE2         N/A
DILLINGHAM*      N/A     72  66  83 MISG        N/A
KAHUKU TRN*      N/A     72  68  88 N3          N/A
KAWAILOA*        N/A     68  64  88 NE5G13      N/A
KII*             N/A     72  68  88 SW2         N/A
MAKUA RANGE*     N/A     72  66  83 NW6         N/A
OAHU FOREST NW NOT AVBL
SCHOFIELD BRK*   N/A     66  64  94 MISG        N/A
SCHOFIELD S*   NOT AVBL
WAIANAE VLY*   NOT AVBL
KUAOKALA*        N/A     70 N/A N/A N9          N/A
HONOULIUULI*   NOT AVBL
MOKUOLOE IS*   NOT AVBL
PALEHUA*         N/A     64  64 100 N6          N/A
WAIAWA PHB*    NOT AVBL
$$

HIZ012>013-060700-
MOLOKAI-

CITY           SKY/WX    TMP DP  RH WIND       PRES   REMARKS
MOLOKAI AIRPT    N/A     70  66  87 N5        29.96R
KALAUPAPA      NOT AVBL
MAKAPULAPAI*     N/A     70  68  94 SE6         N/A
MOLOKAI 1*     NOT AVBL
PUU ALII*        N/A     57  57 100 N1          N/A
$$

HIZ016-060700-
KAHOOLAWE-

CITY           SKY/WX    TMP DP  RH WIND       PRES   REMARKS
KAHOOLAWE*     NOT AVBL
HAKIOAWA*        N/A     68  67  95 MISG      30.36R
HONOKANAIA*      N/A     74  68  81 NE3       29.87R
KANELOA*         N/A     70  66  88 W1        29.99R
KEALIALALO*    NOT AVBL
LUA MAKIKA*    NOT AVBL
$$

HIZ014>015-060700-
LANAI-

CITY           SKY/WX    TMP DP  RH WIND       PRES   REMARKS
LANAI CITY     CLOUDY    69  66  90 W3        30.00R
LANAI 1*       NOT AVBL
$$

HIZ017>028-060700-
MAUI-

CITY           SKY/WX    TMP DP  RH WIND       PRES   REMARKS
KAHULUI        CLEAR     73  67  81 E6        29.94R
KAPALUA-W MAUI NOT AVBL
HANA AIRPORT   CLOUDY    68  66  94 SW2       29.98S
HANA*            N/A     68 N/A N/A SW3         N/A
HALEAKALA SUMM   N/A     45  45 100 SW16        N/A
MAALAEA BAY*     N/A     73 N/A N/A N9          N/A
HALEAKALA*     NOT AVBL
KAUPO GAP*       N/A     72  70  94 CALM        N/A
KULA 1*          N/A     55  52  90 SE12G18     N/A
$$

HIZ023>026-060700-
BIG ISLAND OF HAWAII COAST AND LOWER SLOPES-

CITY           SKY/WX    TMP DP  RH WIND       PRES   REMARKS
KAILUA KONA    CLOUDY    77  67  71 S9        29.91R
HILO           CLOUDY    71  69  93 CALM      29.94R
HONOKAA*         N/A     66 N/A N/A VRB1        N/A
KAWAIHAE MWT*    N/A     79 N/A N/A N5          N/A
KAWAIHAE*      NOT AVBL
SOUTH POINT*     N/A     70 N/A N/A NW9         N/A
UPOLU AIRPORT* NOT AVBL
KAMUELA*       PTCLDY    63  61  94 E6        30.05R
HAKALAU*         N/A     55  55  98 CALM        N/A
KALOKO-HONOKO*   N/A     75  68  78 E6        29.91
PALI 2*          N/A     64  64 100 W3          N/A
KEALAKOMO*       N/A     75  70  83 NE3         N/A
KAUPULEHU*       N/A     72  63  73 E3          N/A
KAPAPALA*      NOT AVBL
LOWER KAHUKU*    N/A     63  63 100 NE1         N/A
PUHE CS*         N/A     77  66  69 NW1         N/A
PUHO CS*         N/A     75  68  78 E2          N/A
PTA KEAMUKU*     N/A     63  59  88 CALM        N/A
WAIKOLOA*        N/A     72  64  78 E6          N/A
$$

HIZ027>028-060700-
BIG ISLAND OF HAWAII INTERIOR AND SUMMMITS-

CITY           SKY/WX    TMP DP  RH WIND       PRES   REMARKS
BRADSHAW FIELD CLOUDY    60  51  72 SW3       30.28R
MK VISITOR CEN   N/A     50  45  81 N8          N/A
MAUNA KEA*       N/A     34  34 100 SW20        N/A  WCI  22
MAUNA LOA*       N/A     43  41  93 MISG        N/A
MAUNA LOA 1*   NOT AVBL
PTA KIPUKA*      N/A     70  64  83 SW5G12      N/A
PTA RANGE 17*    N/A     64  59  82 NE1         N/A
PTA WEST*        N/A     64  57  77 SE8         N/A
NENE CABIN*      N/A     57  46  67 NW3G10      N/A
AHUMOA*          N/A     57  51  81 S12G20      N/A
PTA PORTABLE*  NOT AVBL
PUU MALI*        N/A     55  55 100 CALM        N/A
$$

HIC003-060700-
NORTHWEST ISLANDS-

CITY           SKY/WX    TMP DP  RH WIND       PRES   REMARKS
MIDWAY ISLAND  LGT RAIN  64  61  88 SE18      30.00R
MIDWAY NOS*      N/A     66 N/A N/A MISG      29.97F
FRENCH FRIGATE NOT AVBL
$$

PHZ110>124-180-060700-
BUOY REPORTS

STATION/POSITION TIME  TEMP    WIND        PRES    WAVE   SWELL
                       AIR SEA DIR/SP/G            HT/PER HT/DIR
                 (UTC) (F)     (DEG/KT/KT) (MB)    (FT/S) (FT/D)
BUOY 51001       0620   74 77  320/  4/  8 1014.0
BUOY 51101       0550   73 78  310/  4/  6 1014.3R  10/10  10/ 70
BUOY 51100       NOT AVBL
BUOY 51002       0620   77 78   40/  8/ 12 1013.4
BUOY 51003       0550   77 80   CALM  /  2 1013.3R   7/12   7/330
BUOY 51004       0550   76 79  110/ 12/ 14 1013.6R   7/ 9   7/ 90
BARBERS PT BUOY  NOT AVBL
WAIMEA BAY BUOY  NOT AVBL
KAILUA BAY BUOY  0604      78                N/A     7/11   5/ 30
LANAI BUOY       0615      79                N/A     3/13   2/240
BARBERS PT 2     0609      79                N/A     5/15   3/200
PAUWELA MAUI     0609      78                N/A     7/13   5/340
HILO             0612      77                N/A     7/10   3/ 60
KANEOHE BAY BUOY 0606      77                N/A     6/13   5/360
HANALEI KAUAI    0622      78                N/A     9/12   7/350
KAHULUI HARBOR   0606   73 77  320/  5/  5 1014.0
HONOLULU HARBOR  0606   75 78  360/  2/  3 1014.9
KILO NALU        NOT AVBL
HILO HARBOR      0606   72 76  240/  1/  1 1013.6
MOKUOLOE         0536          220/  1/  3   N/A
NAWILIWILI       0606   73 78  240/  2/  2 1014.9
WHOTS BUOY       NOT AVBL
BUOY 51028       NOT AVBL
$$

......................KEY........................................
  SKY/WX - SKY CONDITIONS/PRESENT WEATHER
  TMP    - TEMPERATURE IN FAHRENHEIT
  DWPT   - DEWPOINT IN FAHRENHEIT
  RH     - RELATIVE HUMIDITY IN PERCENT
  WIND   - DIRECTION AND SPEED /MPH FOR ISLANDS...KTS FOR BUOYS/
  PRES   - MEAN SEA LEVEL PRESSURE IN INCHES OF HG
  VSB    - VISIBILITY IN MILES
  HX     - HEAT INDEX
  WCI    - WIND CHILL INDEX
  VRB    - VARIABLE WIND DIRECTION
  N/A    - NOT AVAILABLE



USA.gov is the U.S. government's official web portal to all federal, state and local government web resources and services.